Wind_Speed
9 8 7 9 10 10 10 11 11 10 9 9 10 11 11 10 9 9 8 7 6 5 4 3 2 1 2 3 3 2 2 2 4 4 3 0 1 3 4 6 7 6 4 4 3 5 6 7 7 7 7 5 4 3 3 4 4 3 5 6 7 7 8 7 7 8 9 11 10 7 7 8 11 8 3 3 9 13 14 14 11 11 12 14 11 6 8 9
9 8 8 8 9 11 12 11 11 10 9 9 10 11 11 11 11 10 10 8 7 6 5 4 2 1 2 4 3 2 1 4 7 5 1 1 1 3 4 6 6 4 3 4 5 6 6 5 6 7 6 4 3 2 2 3 4 5 5 7 7 8 9 8 8 10 10 11 11 12 13 10 10 12 8 8 14 14 15 14 11 13 14 15 15 12 11 10
8 8 9 8 7 10 12 11 10 9 9 9 9 10 11 11 11 11 10 9 8 7 6 4 3 2 2 3 5 3 3 7 8 3 3 1 0 2 4 5 5 3 2 4 5 5 6 4 4 7 6 4 3 3 3 3 4 6 6 7 8 9 11 9 10 10 9 10 12 13 13 12 12 12 9 11 16 18 17 14 12 13 13 13 14 14 15 13
8 8 9 8 7 9 12 11 10 8 8 8 8 8 9 10 11 11 11 10 9 8 7 5 4 3 2 4 6 5 5 8 4 5 3 1 0 2 3 4 4 3 2 3 3 4 5 4 5 6 5 5 4 3 5 4 3 4 6 8 10 11 11 10 11 9 7 8 11 14 14 15 14 9 9 12 15 16 14 11 11 12 13 12 12 11 11 14
7 8 8 8 8 9 11 11 9 8 7 7 7 8 8 9 11 11 11 11 10 9 8 6 5 3 3 5 6 5 5 5 3 6 2 1 0 2 2 3 4 3 1 3 3 2 4 5 5 5 5 5 4 4 7 6 4 5 8 12 12 13 12 11 11 6 4 9 10 14 15 14 12 9 11 14 15 14 12 11 14 15 15 14 13 12 6 11
7 8 8 8 9 11 11 10 9 8 8 7 7 8 8 9 10 11 11 11 10 9 9 7 5 4 4 5 5 4 5 2 4 3 2 1 1 1 2 2 4 3 1 3 2 3 4 4 5 5 4 5 6 6 6 4 4 6 9 12 11 11 11 11 11 4 3 10 12 13 14 12 13 14 14 16 18 17 16 16 17 17 16 15 13 12 10 12
7 8 8 8 10 11 10 10 9 8 8 8 8 8 8 8 10 12 12 11 11 10 9 8 6 5 4 4 3 4 7 1 5 3 2 1 1 1 1 2 3 2 2 4 3 3 3 4 5 4 5 6 6 7 5 3 5 8 10 11 12 11 10 11 11 6 4 10 12 12 14 13 15 16 14 18 21 19 19 18 16 16 16 13 12 13 13 14
7 8 8 9 10 10 10 9 9 9 9 9 8 8 8 9 10 12 13 13 12 11 10 9 7 6 5 4 3 5 5 3 6 3 2 1 2 2 1 1 2 2 2 3 3 3 3 4 5 3 5 5 4 5 4 5 8 10 11 11 11 10 10 10 10 9 9 10 10 12 15 15 15 15 15 21 24 20 18 17 14 12 13 12 12 13 12 13
7 8 8 9 10 10 9 9 8 8 8 9 9 9 8 9 10 11 13 13 13 12 10 9 7 7 7 5 5 5 2 6 4 2 1 2 3 2 1 2 2 2 2 2 2 3 3 3 3 3 6 6 5 6 4 5 6 5 8 11 11 12 12 12 12 11 11 8 7 12 17 16 12 8 14 23 20 14 10 9 9 9 10 11 10 11 11 12
7 7 8 8 9 8 8 8 6 4 5 7 8 8 8 8 8 10 11 12 12 10 9 9 8 8 7 6 6 4 4 6 3 1 0 2 3 2 1 3 3 3 3 1 2 4 3 4 4 3 6 6 5 5 4 5 4 6 9 12 13 16 14 13 14 13 10 8 9 14 18 16 9 1 10 18 7 2 4 6 7 8 10 10 9 9 9 10
6 7 7 7 7 7 7 7 4 1 3 5 6 7 7 7 7 8 9 10 10 9 9 8 9 8 6 6 7 2 6 6 2 1 0 2 2 2 3 4 3 4 4 2 3 3 3 4 4 3 3 3 4 5 5 4 6 8 11 13 15 16 15 15 15 10 7 6 7 12 17 17 10 6 14 18 7 3 6 9 8 9 9 9 10 9 8 9
5 6 6 6 6 6 6 5 3 3 5 5 6 6 7 7 7 7 8 9 9 9 9 8 9 7 4 6 5 1 6 4 2 2 1 3 2 3 4 5 4 4 5 5 3 1 2 3 3 6 3 4 6 6 2 3 7 9 9 12 15 14 14 12 8 3 4 4 2 6 15 13 11 14 18 15 9 5 6 9 9 9 10 10 10 9 8 9
4 5 4 3 5 6 5 3 3 5 6 6 5 6 6 6 7 7 7 8 8 9 9 8 9 5 5 4 1 3 6 4 3 1 3 4 3 3 3 4 3 3 4 5 4 2 1 3 4 7 4 5 7 4 3 4 7 9 9 9 11 11 7 4 4 4 5 3 1 3 10 6 9 17 13 3 1 3 6 9 10 10 10 10 10 9 9 10
3 3 2 2 4 5 3 3 4 6 7 7 6 6 6 7 7 8 8 8 9 9 9 9 8 5 5 1 3 3 4 3 3 1 3 4 4 2 1 2 2 3 3 3 3 1 1 2 5 6 2 5 5 5 7 8 7 7 8 6 6 7 1 7 7 5 5 2 2 4 6 7 6 6 4 6 4 3 7 10 11 11 11 11 11 12 12 12
2 2 1 2 4 4 3 4 6 7 8 8 9 8 8 9 9 9 8 9 8 8 8 8 6 4 5 2 2 3 4 4 4 2 4 4 5 3 1 1 2 2 2 2 1 1 1 3 5 5 1 2 4 6 8 7 6 6 6 5 4 4 2 6 7 5 4 2 5 6 5 10 11 5 10 6 3 3 9 11 12 13 15 14 13 14 13 13
1 1 1 3 4 4 5 6 7 8 9 10 10 10 10 10 10 9 9 9 8 9 8 5 6 5 6 1 4 3 4 4 3 2 5 4 4 5 2 2 1 1 1 2 2 3 3 4 3 3 3 4 5 6 6 7 6 6 5 5 4 5 6 2 4 5 4 2 6 8 6 10 8 4 6 2 2 7 11 13 16 16 16 15 13 12 12 13
1 2 2 4 4 4 5 6 7 9 9 10 10 10 10 10 11 10 10 9 7 8 5 2 3 6 4 2 3 2 2 1 1 3 5 4 3 4 3 3 1 2 3 4 4 4 4 4 2 1 4 6 5 4 5 6 4 3 5 6 7 7 8 5 2 4 5 4 6 8 9 15 14 8 9 7 9 13 14 15 15 15 14 13 12 12 13 13
1 3 3 4 5 4 5 5 7 8 9 10 10 10 10 11 12 10 9 8 6 5 4 2 2 4 1 2 1 1 2 1 2 3 3 3 2 2 3 2 1 2 4 4 5 5 4 4 3 3 5 5 5 4 5 5 5 5 4 6 8 8 9 9 4 4 7 6 7 9 11 17 19 11 9 13 16 16 15 14 14 13 14 13 12 13 13 14
2 4 5 5 5 5 6 6 7 9 9 11 11 12 12 11 9 6 4 3 2 2 1 2 2 3 1 2 2 3 3 3 3 2 1 2 2 2 2 2 3 4 3 2 4 5 3 3 4 5 5 6 6 6 8 9 9 10 9 7 9 10 10 12 6 4 3 5 9 12 12 14 18 10 10 14 15 16 15 13 12 12 12 12 13 13 14 15
2 5 7 6 6 6 7 8 9 10 10 11 11 9 7 4 3 3 4 3 2 2 2 1 3 5 1 1 3 4 5 4 3 2 1 3 3 3 4 4 4 4 5 3 2 2 1 4 6 7 7 6 5 5 8 10 10 10 10 9 11 11 11 13 6 5 3 4 8 11 11 12 15 9 10 12 15 16 15 14 13 12 12 13 14 14 15 15
2 5 7 7 7 6 7 9 10 10 8 7 6 3 0 1 2 0 2 2 3 4 3 3 4 4 2 3 4 6 5 4 4 3 2 4 4 4 3 3 4 4 3 2 1 1 1 6 9 8 7 6 6 6 8 9 9 9 9 9 10 9 11 11 3 5 3 2 6 10 10 12 13 5 11 13 15 16 14 14 13 14 13 13 14 15 15 13
3 4 7 8 8 6 7 10 10 7 3 2 3 4 2 3 3 2 2 1 4 2 2 1 2 1 1 2 3 5 5 5 4 4 3 5 4 3 1 1 5 3 2 2 3 3 5 8 6 2 3 4 3 3 5 7 8 8 7 7 8 7 9 7 4 5 2 2 7 10 10 13 10 6 14 14 14 13 12 13 13 14 14 13 14 15 14 14
4 4 6 9 9 8 8 9 8 6 4 3 3 3 2 2 2 1 2 3 2 1 1 1 2 1 1 1 3 5 6 4 2 4 5 8 3 1 3 4 6 4 3 5 6 5 6 3 2 4 4 3 5 3 4 7 6 7 7 7 8 7 8 6 1 1 3 6 10 11 10 11 2 12 14 12 13 12 12 14 13 13 14 14 15 14 14 15
5 5 6 9 11 10 8 8 7 6 6 6 4 4 3 1 2 3 1 2 1 1 1 2 2 2 2 0 3 6 4 2 2 3 7 7 2 0 3 3 5 6 6 6 7 9 9 2 4 2 3 5 8 5 5 6 5 7 7 7 8 8 9 9 7 8 10 9 9 8 9 7 6 11 10 10 11 12 12 12 13 14 13 13 14 14 15 16
6 6 6 9 11 11 9 6 6 7 7 5 3 4 2 3 4 3 1 2 1 2 2 1 1 1 2 3 3 5 3 1 2 4 6 6 3 2 2 1 3 5 2 2 5 9 8 2 2 3 3 3 6 6 4 3 6 7 3 3 5 8 9 11 11 11 10 5 4 3 8 4 7 12 9 8 9 11 11 12 14 14 14 13 13 14 14 15
6 6 7 9 11 12 9 4 6 8 7 4 3 3 4 4 4 2 2 3 2 2 1 2 2 0 2 2 3 4 3 1 3 3 3 3 2 2 2 1 3 2 2 1 5 5 1 3 1 2 3 3 5 5 1 1 6 6 2 5 5 7 9 10 11 7 6 7 2 4 6 6 4 9 11 10 10 11 10 13 15 13 13 13 12 13 13 14
6 6 8 10 12 14 7 1 4 7 3 2 4 5 4 3 4 2 3 3 2 1 1 1 1 2 2 3 4 5 3 1 2 2 3 3 2 1 3 1 2 2 0 2 4 2 2 2 1 1 2 4 5 2 1 2 6 3 3 5 6 7 9 10 10 7 7 9 9 7 7 7 7 5 10 9 9 11 12 14 15 13 13 13 13 13 13 13
5 6 9 10 13 15 5 3 3 4 2 1 5 6 5 3 3 2 4 1 1 1 1 1 0 1 2 2 3 3 2 4 1 2 3 1 1 2 4 4 4 4 1 3 4 1 2 1 2 2 4 4 3 3 3 4 5 2 4 5 6 8 10 10 8 8 7 6 9 7 7 6 7 5 8 5 6 11 12 12 13 13 13 13 13 14 14 13
4 6 9 10 14 14 6 3 2 2 1 1 5 7 5 3 3 3 3 1 1 0 0 0 1 1 5 3 0 3 2 3 3 2 1 1 0 2 3 3 5 6 4 5 7 3 2 3 3 3 4 4 3 3 3 4 4 4 5 7 8 9 9 8 7 6 5 6 9 8 6 6 6 4 5 3 5 7 8 8 10 11 12 12 13 14 14 13
4 7 10 12 12 9 5 2 2 3 2 2 5 7 5 3 3 3 2 1 1 1 1 1 0 4 9 4 1 5 4 2 4 3 2 2 2 4 2 1 3 6 5 6 9 7 1 4 0 2 3 3 3 2 2 2 4 5 7 9 9 9 8 6 5 3 4 6 5 3 1 5 6 1 3 4 4 4 5 6 9 11 12 12 12 13 14 13
5 8 13 13 9 6 4 2 1 3 3 3 5 6 5 3 3 3 1 1 1 1 0 2 2 3 7 5 2 6 5 1 4 5 2 1 2 0 2 1 2 4 4 4 5 6 4 3 1 1 3 3 3 2 2 1 3 3 6 7 7 7 4 5 4 3 5 5 1 3 2 6 7 1 5 5 6 6 6 6 9 11 12 12 12 12 13 13
7 10 14 10 6 5 3 2 3 4 5 5 5 4 3 3 2 1 2 1 1 2 2 1 3 4 5 2 3 7 4 1 4 5 3 2 4 6 7 6 5 4 1 2 4 3 3 2 1 1 1 2 4 3 1 3 3 3 5 5 6 6 4 4 5 4 6 6 1 4 4 5 5 2 7 7 7 7 7 7 9 10 12 12 12 13 12 12
9 10 10 7 5 4 3 4 5 5 6 5 3 3 4 4 1 2 2 1 1 2 1 2 4 5 5 2 4 7 1 1 6 3 1 2 2 5 8 11 11 6 4 6 7 5 1 3 2 1 1 0 4 5 3 1 4 5 4 5 5 5 6 7 7 6 8 8 5 6 6 5 5 4 9 9 9 8 8 8 9 10 12 12 12 12 12 12
9 7 7 6 6 6 6 5 4 4 4 3 4 4 4 2 1 1 1 3 3 1 1 2 4 4 2 1 4 5 1 1 5 5 1 1 1 4 6 11 13 8 6 7 4 4 4 0 2 3 2 1 3 4 3 6 7 4 3 5 6 4 5 7 7 8 9 9 12 13 7 7 5 4 9 9 9 9 8 9 9 10 10 10 10 11 11 11
9 7 7 7 7 6 5 3 3 3 3 4 4 4 3 1 2 1 1 2 2 3 2 0 3 4 1 2 1 2 2 1 4 5 4 4 5 5 5 8 12 10 6 6 3 3 6 3 2 1 1 2 2 2 1 6 4 1 2 5 4 3 4 6 9 11 11 10 10 10 7 3 3 7 9 8 8 8 9 9 10 11 10 9 9 10 11 10
8 7 7 7 6 5 4 3 2 2 4 4 4 2 1 2 2 2 3 2 2 5 6 2 2 3 1 1 1 3 2 1 4 4 3 6 7 7 6 5 8 11 7 5 5 3 5 3 2 3 2 1 2 1 2 4 3 2 4 4 3 5 5 6 10 10 10 10 7 8 8 2 3 5 7 6 6 9 10 10 11 11 11 10 9 9 10 10
5 6 6 7 7 5 3 2 1 3 4 4 2 1 2 2 3 3 3 3 1 3 6 3 2 3 3 1 2 7 5 2 4 4 1 3 4 7 7 4 6 10 8 5 4 3 5 6 2 3 3 3 1 2 3 2 3 4 5 6 6 5 3 4 7 6 7 9 7 9 11 9 6 2 5 5 7 10 10 11 11 11 11 10 10 10 11 12
2 4 5 8 10 5 2 1 1 3 4 2 2 3 1 1 3 4 3 3 2 2 4 3 3 2 4 3 3 7 8 4 5 5 2 2 2 6 7 4 6 10 8 5 4 3 5 7 1 2 1 2 3 2 2 2 2 3 4 5 4 3 2 4 6 6 8 9 8 10 13 11 7 3 4 6 10 10 9 9 10 10 11 10 11 12 13 14
2 2 2 8 10 5 2 1 2 3 3 1 3 3 1 3 4 3 3 3 2 3 2 3 2 1 2 4 4 4 5 5 5 4 2 3 3 5 7 5 5 10 10 5 4 4 5 5 1 2 2 2 3 2 3 1 2 2 3 2 2 2 5 6 6 6 8 10 9 10 10 6 4 6 6 7 9 9 9 9 9 10 10 9 10 10 12 13
2 2 2 8 9 4 1 2 3 2 1 1 2 2 2 3 4 3 3 3 2 2 3 3 2 2 2 2 2 3 4 4 4 3 3 4 2 4 8 7 6 10 11 6 3 5 4 4 4 3 3 4 2 2 5 6 3 2 3 2 3 4 6 6 7 5 4 8 10 9 10 5 5 6 7 8 8 9 10 10 9 9 9 9 10 11 11 11
3 1 2 7 7 2 2 1 1 1 2 2 3 3 2 1 2 3 2 2 2 1 2 3 3 2 3 2 1 3 4 3 3 3 2 4 4 3 6 7 6 9 9 5 2 5 4 4 7 7 6 7 5 5 3 4 3 3 3 3 5 6 6 7 7 3 1 7 9 9 12 6 5 5 6 7 8 8 8 10 9 10 11 12 13 14 14 13
2 1 2 6 6 3 3 1 2 2 2 2 2 4 2 1 2 2 2 1 1 0 0 1 3 3 3 3 3 3 4 3 3 3 3 4 5 4 6 8 8 6 6 4 2 3 3 3 6 7 8 8 3 6 5 4 4 2 1 3 5 6 5 5 8 7 6 9 9 9 12 5 2 2 3 5 7 7 9 14 14 12 14 15 16 17 16 14
1 2 3 6 5 3 3 2 2 2 4 3 2 3 3 2 2 1 1 2 1 0 0 1 2 2 3 3 3 3 4 3 2 3 3 3 4 4 5 8 9 6 4 3 3 3 2 3 5 7 8 5 4 8 6 4 2 1 2 4 5 4 4 4 8 8 8 10 9 9 10 3 3 1 3 7 12 12 12 15 16 14 14 16 17 17 16 16
2 2 3 7 6 3 3 1 3 4 5 4 5 4 2 4 5 2 3 5 2 1 2 2 2 2 3 3 3 3 4 3 2 3 2 2 3 3 5 8 8 6 4 4 4 4 3 3 5 7 7 5 1 2 1 1 2 5 4 4 5 4 4 6 7 7 7 8 7 8 10 4 3 6 11 15 17 16 14 15 16 15 14 15 16 16 16 17
2 2 2 6 8 3 1 1 1 5 6 6 6 4 2 4 3 3 3 5 3 2 2 2 1 2 3 2 0 3 4 3 2 2 2 3 2 2 5 7 7 6 5 4 5 4 4 4 5 6 6 7 7 6 6 6 7 8 5 4 6 5 6 5 6 6 6 6 8 7 9 10 13 16 19 21 21 18 15 16 17 16 15 15 15 15 15 17
1 1 2 2 5 5 2 2 1 4 6 5 5 3 2 4 3 1 1 2 3 3 3 3 1 2 3 3 0 2 4 3 2 1 2 3 2 3 5 5 6 6 3 3 5 3 3 4 4 5 6 7 9 10 12 12 10 10 8 5 5 6 6 5 5 6 6 7 7 8 12 16 18 20 21 22 20 16 15 18 19 18 17 15 14 15 16 18
1 1 1 1 2 3 3 3 3 3 3 1 2 2 3 4 4 2 1 2 3 2 2 4 4 2 4 5 2 2 5 3 1 2 2 2 2 3 2 3 5 6 2 3 6 3 4 4 2 3 6 10 12 15 16 14 11 11 9 6 5 6 5 3 4 6 6 7 7 11 18 19 18 20 21 19 16 14 16 20 19 18 18 18 17 19 21 21
1 1 1 1 0 2 3 3 3 4 4 2 2 2 2 5 4 2 2 1 1 3 2 3 6 6 5 5 3 3 6 3 2 1 1 2 3 3 1 3 4 5 2 2 5 3 3 3 2 2 8 12 14 16 15 11 9 8 6 6 6 6 3 2 3 6 6 6 9 15 20 20 19 19 17 14 13 15 17 19 18 19 20 20 20 21 22 21
1 3 2 2 1 3 3 2 2 5 6 4 3 2 3 5 5 3 2 0 1 4 5 3 4 5 5 5 4 3 5 4 1 1 1 1 3 3 1 2 3 4 4 3 4 3 2 1 2 3 11 14 13 12 7 5 8 8 3 4 5 4 3 3 4 7 8 9 12 18 21 20 16 15 14 12 13 15 15 16 18 21 22 21 20 20 21 21
1 2 2 3 4 4 2 1 0 4 5 3 2 3 2 4 5 3 3 4 2 4 6 4 3 2 2 5 5 3 4 4 4 3 2 2 2 1 1 2 1 3 5 3 3 3 3 1 2 3 9 11 7 3 2 6 11 10 1 3 4 4 5 6 6 8 9 10 15 19 19 16 12 12 16 15 15 15 16 19 20 20 20 21 20 20 20 20
3 2 2 4 5 3 2 1 0 2 4 3 2 2 1 3 5 4 3 4 4 4 4 4 3 1 2 3 5 4 4 5 6 6 5 4 3 1 1 3 3 3 3 3 2 3 3 4 3 3 7 9 4 1 7 12 10 3 3 2 4 4 6 8 9 8 9 12 17 17 14 11 11 14 16 17 17 19 20 21 20 18 19 21 21 20 19 19
4 3 1 2 4 2 2 1 0 1 2 3 3 2 2 3 4 2 2 3 3 4 4 4 5 2 2 2 5 6 6 7 6 5 4 3 2 1 1 2 2 2 2 2 1 0 2 4 5 4 6 8 7 7 12 14 8 2 4 1 2 4 9 11 11 11 12 12 13 12 11 12 15 17 18 19 19 20 20 20 19 18 20 22 21 20 20 20
Wind_Direction
318 336 337 316 317 327 329 322 315 310 291 268 255 251 250 246 242 242 242 242 236 235 245 257 259 220 183 163 154 137 134 269 254 246 254 144 343 332 342 347 342 337 335 315 256 234 218 208 204 198 215 205 219 237 178 223 233 231 249 253 268 270 283 313 309 312 320 311 307 308 321 306 299 301 290 281 260 261 264 256 246 238 234 244 247 180 159 165
309 319 313 298 308 318 317 313 312 307 292 274 259 250 246 243 239 239 241 243 239 232 241 253 252 228 198 191 194 194 251 270 256 241 191 192 277 345 349 348 341 335 325 284 250 244 240 222 197 202 225 216 196 189 178 206 212 237 256 263 267 273 291 314 316 311 307 302 309 310 310 304 293 301 302 281 281 281 275 271 258 249 244 245 242 212 185 181
291 300 298 291 303 312 310 307 303 295 285 275 263 251 243 239 236 236 237 239 237 231 234 241 249 243 221 212 209 218 259 261 249 196 135 192 314 354 342 347 343 341 320 283 273 259 264 266 206 215 234 235 213 187 222 197 192 240 248 259 265 282 296 302 308 308 303 309 310 304 306 299 287 292 285 276 286 285 279 280 275 269 263 252 248 231 203 197
289 290 287 290 302 305 301 297 293 285 276 271 264 254 244 238 234 233 233 234 234 231 228 232 237 227 224 221 209 213 255 259 231 114 124 211 345 320 336 349 347 356 322 272 274 256 252 246 213 228 243 249 231 210 245 211 184 247 237 256 274 290 295 294 306 315 315 320 309 300 299 289 289 297 279 278 285 281 278 284 290 297 297 280 285 281 210 195
291 286 283 293 299 293 289 289 288 281 272 269 263 255 245 237 232 229 230 229 230 230 226 228 223 209 215 214 207 215 259 263 128 105 140 217 250 298 344 353 351 10 308 239 245 235 222 210 206 225 238 255 240 224 250 223 216 265 250 259 273 283 287 292 307 335 335 310 298 291 288 288 298 294 278 278 274 273 283 296 300 302 303 293 297 307 238 204
293 289 287 296 296 290 289 290 288 279 274 272 264 255 243 236 230 226 227 225 226 226 224 227 217 204 206 204 198 215 262 275 113 137 185 178 286 324 352 350 358 19 211 234 237 222 219 205 212 231 241 260 257 247 261 228 216 265 264 265 272 279 284 293 306 340 340 297 289 287 286 293 295 285 283 278 267 270 283 289 293 293 294 292 290 290 263 240
297 290 290 297 296 292 292 293 290 283 275 269 263 253 239 230 225 223 221 220 221 219 219 221 211 201 191 187 183 219 252 212 123 185 201 161 329 358 324 334 10 6 239 251 246 232 243 230 238 267 269 266 270 259 272 273 238 254 271 276 281 287 285 291 297 297 298 284 280 284 284 283 282 284 288 279 271 273 280 283 285 287 288 282 278 278 266 257
295 290 295 299 297 296 299 302 295 284 271 259 252 242 231 220 216 216 214 214 213 211 213 210 202 191 172 176 211 231 239 116 119 180 206 280 327 341 281 288 359 334 261 275 288 281 276 249 258 292 270 270 298 277 283 286 257 248 261 278 285 288 287 290 287 277 279 275 274 277 273 271 274 283 285 275 275 277 278 281 280 279 281 273 268 274 268 264
292 292 301 302 300 301 307 311 301 283 260 241 234 227 223 215 210 210 208 209 208 207 205 199 196 181 175 198 249 251 170 105 127 183 226 316 326 329 252 240 277 285 271 298 300 280 275 274 290 309 291 295 298 285 284 274 271 267 273 290 296 291 290 289 278 272 275 272 269 271 270 275 280 289 278 268 271 285 287 279 275 271 273 274 271 274 274 273
295 299 305 305 304 308 322 332 325 289 236 216 211 212 215 213 212 209 206 205 205 204 196 193 188 178 189 217 251 261 108 116 149 176 279 346 350 340 261 238 248 265 278 315 281 267 278 314 329 327 307 294 283 282 260 254 298 318 295 293 290 285 284 280 273 271 275 271 257 265 276 281 278 244 268 270 268 298 289 272 273 275 273 279 282 282 287 284
298 304 306 310 315 327 347 358 8 59 164 170 180 191 201 208 208 206 204 200 199 198 191 189 182 180 210 240 255 264 112 125 153 158 294 3 351 300 258 240 242 264 279 282 263 271 291 316 324 291 293 312 304 274 243 277 306 297 294 292 283 279 276 267 264 264 267 268 250 265 281 277 256 218 245 260 258 226 273 287 290 292 290 293 296 300 305 303
308 311 307 315 336 357 10 16 43 96 125 142 162 174 188 194 190 195 193 189 191 189 186 184 178 182 238 249 260 95 126 150 168 151 349 355 305 274 255 235 235 266 284 284 279 328 300 320 295 262 285 332 306 286 275 336 299 280 284 287 284 282 275 262 251 220 232 254 257 282 288 272 216 218 241 248 252 255 278 300 312 317 321 324 323 322 321 323
319 316 313 329 6 22 25 41 91 106 115 125 139 156 170 170 169 173 171 174 178 178 179 179 175 191 258 249 107 113 150 175 178 153 343 339 302 291 278 239 229 266 279 291 321 36 290 302 276 273 309 295 288 323 318 279 273 275 273 273 286 291 272 205 142 151 214 232 82 286 294 292 190 212 232 214 217 294 310 322 334 338 340 342 341 342 342 346
319 316 330 7 38 40 49 96 113 113 117 122 128 137 144 147 150 148 153 163 165 168 170 171 173 199 258 256 89 165 188 192 202 255 317 327 304 272 235 236 258 284 266 278 316 329 266 271 262 272 292 271 296 334 289 264 249 260 275 259 260 288 235 143 147 182 214 169 149 242 270 291 281 221 155 80 60 357 335 335 345 352 2 4 4 8 6 9
303 299 14 78 71 67 86 104 110 114 116 120 123 126 130 134 135 139 148 152 155 159 155 164 181 216 252 208 116 200 208 204 209 258 295 329 315 278 204 295 309 297 260 248 261 228 212 219 244 269 254 223 277 286 276 269 244 238 275 268 229 266 242 161 165 196 232 153 178 227 264 282 303 33 91 83 58 9 342 350 11 21 26 22 19 20 14 15
285 226 138 105 95 91 94 98 105 110 114 117 118 121 124 128 132 136 139 142 149 149 146 169 198 237 274 174 125 183 201 214 222 277 304 331 322 308 322 279 252 159 176 155 168 162 185 222 247 288 275 241 249 267 280 275 251 208 228 278 275 278 285 214 160 191 229 159 188 223 274 288 295 33 62 58 19 10 10 25 35 35 33 26 23 21 16 16
235 175 142 113 107 102 98 100 107 111 114 117 118 122 126 130 132 127 124 129 135 145 166 250 208 237 277 112 146 188 169 208 277 315 315 321 310 312 301 251 205 143 155 149 167 178 195 219 221 252 243 241 252 270 279 276 269 190 213 273 283 279 289 281 194 173 188 200 228 235 255 273 278 307 343 11 36 34 39 42 39 38 34 28 23 20 18 16
165 163 148 118 112 109 111 117 122 122 121 121 123 122 125 126 121 113 111 116 124 159 212 260 216 240 222 138 209 38 69 5 307 296 299 317 317 302 279 253 225 199 187 175 187 194 201 207 217 262 248 232 241 239 249 284 320 311 287 290 292 292 287 280 274 152 174 213 254 261 257 268 281 309 18 43 49 51 52 44 40 40 34 28 25 20 17 16
162 173 168 132 122 126 128 138 137 131 127 124 123 120 121 123 119 115 123 140 184 207 229 184 227 280 92 101 17 17 341 304 289 263 241 348 317 246 224 224 220 222 233 225 178 179 217 235 232 260 257 240 236 227 245 279 304 303 296 290 289 290 280 282 297 125 166 267 266 268 269 273 289 324 50 58 55 57 51 45 43 37 33 29 26 22 17 16
167 186 181 148 137 143 143 148 141 132 129 125 126 131 132 137 146 150 164 202 255 341 339 330 309 300 289 48 6 337 305 265 227 186 92 352 313 240 210 204 214 220 238 251 181 139 294 265 247 249 261 278 280 264 269 285 296 292 286 280 275 277 278 286 300 106 97 299 272 275 281 279 291 331 61 66 59 56 45 43 41 35 36 31 28 26 20 18
177 193 188 166 153 155 156 154 145 138 133 128 149 191 298 341 304 49 157 178 64 16 321 334 328 298 320 3 354 337 304 231 197 151 47 351 300 253 195 186 233 225 199 224 244 116 243 255 255 258 280 319 331 309 295 290 285 276 271 275 274 273 281 292 341 99 106 275 277 284 287 283 288 345 72 66 59 56 45 43 40 36 38 32 30 28 22 21
207 203 193 181 169 164 167 163 157 155 143 143 213 263 345 355 310 333 299 268 76 25 292 330 284 249 50 17 357 333 287 244 196 137 43 337 276 263 21 225 255 255 131 183 242 239 234 247 260 310 8 359 323 296 281 270 266 263 260 267 274 283 291 305 78 111 161 215 283 296 293 288 295 69 78 70 70 68 57 53 47 40 40 35 31 27 22 21
229 218 199 192 182 176 181 180 183 201 236 247 257 295 323 304 279 148 265 280 95 93 318 23 301 326 86 125 19 317 273 279 255 115 25 329 287 347 324 279 271 278 258 240 246 261 262 248 57 44 33 315 280 256 253 261 253 249 253 262 276 303 311 307 106 162 262 241 269 296 291 279 269 96 85 78 82 78 68 63 57 48 43 38 32 28 23 20
239 227 208 199 191 183 187 192 202 223 238 245 274 298 278 221 160 152 256 283 108 115 54 21 335 4 12 7 344 303 276 334 329 52 15 333 325 27 285 306 295 270 259 258 252 261 275 334 65 7 314 290 281 267 256 267 272 257 252 262 281 307 312 301 302 307 296 258 243 274 287 268 152 125 108 98 90 76 66 59 55 51 44 39 33 29 24 20
244 231 213 203 195 183 184 198 214 225 230 236 262 265 219 139 151 180 274 262 146 126 145 176 194 62 4 281 295 302 285 6 8 21 13 351 353 318 298 7 284 270 267 290 270 265 275 340 44 308 291 277 270 272 269 274 294 289 281 313 317 317 309 300 307 312 305 283 181 218 296 301 150 147 134 118 93 73 64 52 49 43 37 35 29 26 24 20
245 233 214 202 191 178 178 205 216 217 225 227 225 203 158 139 163 184 280 242 155 95 158 176 181 52 359 305 308 300 262 135 63 33 25 18 3 297 301 185 213 291 12 311 277 267 282 69 49 295 281 265 257 260 252 326 299 298 5 17 353 319 305 302 307 304 295 302 241 208 275 293 221 160 139 122 89 72 61 48 44 38 32 30 25 22 21 19
241 228 208 198 186 175 174 272 201 195 219 219 199 183 154 151 167 183 265 231 143 28 312 122 150 324 353 345 318 294 286 45 99 93 54 24 25 216 271 274 219 271 38 279 281 234 122 112 146 246 281 280 278 273 78 328 298 307 25 360 337 312 297 295 299 284 279 295 285 247 227 263 272 162 136 127 89 60 47 42 37 33 30 27 23 21 18 17
237 215 200 196 185 179 189 325 191 185 287 261 187 178 168 163 173 235 267 244 73 337 320 54 123 321 320 303 326 334 347 342 322 94 74 340 327 232 246 275 287 285 208 246 280 93 102 106 91 14 314 309 331 18 21 303 281 356 24 336 310 292 281 282 281 273 281 295 290 265 197 232 273 149 130 123 77 43 35 38 32 28 26 23 22 20 18 17
214 194 190 187 181 186 216 287 221 213 302 229 180 181 185 193 217 255 260 260 28 20 122 36 162 347 321 274 330 27 20 352 2 46 144 198 305 257 268 314 295 286 254 233 261 287 45 59 49 351 317 337 8 20 2 300 274 351 341 295 277 260 255 263 263 271 283 265 276 275 195 233 279 146 123 81 66 32 18 31 31 26 23 22 20 17 15 15
179 176 173 169 170 186 219 256 236 215 179 151 178 192 211 232 245 255 248 280 358 86 161 358 226 318 334 329 102 19 23 52 12 337 240 179 181 211 242 345 269 270 249 219 247 263 74 82 49 330 334 342 350 357 31 309 293 321 301 285 284 266 240 236 241 259 273 254 270 309 193 267 286 144 86 57 71 33 10 20 20 18 19 19 18 15 12 11
148 162 160 158 165 189 211 202 172 186 176 163 173 196 226 238 249 268 356 73 342 7 146 24 2 325 348 9 43 7 12 54 359 350 349 129 136 176 322 318 251 264 234 202 237 231 159 115 159 46 9 323 295 262 148 206 266 285 282 290 306 294 251 226 232 208 248 272 353 55 355 282 272 278 84 90 84 54 32 19 12 13 13 14 14 13 12 11
120 149 156 158 172 189 195 140 133 155 159 163 175 205 242 241 235 286 51 173 263 355 17 26 4 350 347 350 3 357 357 5 356 8 15 25 73 50 30 25 352 311 286 348 319 256 162 102 81 86 32 313 296 295 153 174 219 258 291 309 317 315 314 280 272 253 269 290 16 56 7 297 276 74 99 105 83 60 46 34 23 16 13 13 14 12 12 11
106 132 146 149 159 158 131 117 128 143 151 167 207 238 254 261 276 71 31 331 347 18 358 306 326 330 314 296 0 355 335 9 349 354 198 262 96 80 61 37 8 342 329 324 326 334 11 109 93 30 114 265 311 336 9 323 309 323 337 342 330 318 314 297 291 290 287 288 301 337 349 288 272 100 103 95 79 65 51 40 32 25 18 15 15 13 11 10
96 118 128 114 109 110 104 112 130 151 171 213 240 240 253 272 51 97 341 6 20 351 267 318 314 300 305 6 16 352 327 97 360 349 313 264 54 63 53 33 16 359 323 313 339 349 318 76 53 8 30 339 326 8 358 307 309 331 355 324 306 299 299 294 297 301 298 296 299 305 303 289 293 117 112 97 85 68 51 41 35 32 22 14 13 11 8 7
95 108 113 96 82 81 82 91 133 173 224 254 242 244 267 15 65 64 15 21 0 334 316 226 290 269 175 101 108 16 12 66 13 7 24 41 46 40 29 24 14 6 349 340 6 337 312 332 70 30 341 310 340 53 326 290 293 341 321 296 289 316 314 291 285 286 286 289 292 286 279 317 44 120 123 110 96 69 48 36 31 30 22 14 9 6 4 1
95 93 85 64 47 44 54 68 119 207 253 260 240 254 21 54 23 12 19 351 334 333 312 265 284 301 1 95 121 55 46 263 345 359 87 74 60 43 33 35 13 9 17 358 340 336 326 320 139 148 212 243 4 1 290 319 339 324 304 318 338 321 303 284 280 281 280 279 278 276 279 293 119 136 133 118 75 50 38 29 27 23 18 12 5 1 359 356
86 83 73 38 23 20 20 45 131 232 256 266 259 31 58 61 12 17 21 347 323 315 305 306 35 353 350 358 37 20 357 290 339 336 113 93 62 27 15 41 29 13 16 351 336 31 337 303 193 151 204 169 91 307 278 318 338 321 317 339 336 293 249 260 279 290 291 282 278 284 288 288 284 258 130 103 40 29 24 21 17 13 13 8 360 358 355 353
94 107 87 26 13 10 8 53 206 240 248 254 104 83 55 59 31 22 14 341 300 279 309 359 31 357 348 340 4 6 346 336 346 343 32 52 40 28 12 21 23 7 1 325 302 7 333 303 250 129 256 153 151 235 264 194 227 304 313 319 325 297 277 291 293 305 300 287 284 286 287 293 308 357 71 48 25 19 13 12 8 5 8 359 352 352 351 351
228 186 101 12 2 8 32 148 224 244 236 194 114 107 60 65 62 32 5 332 302 299 338 34 19 9 26 347 342 7 3 357 343 331 23 13 16 49 25 2 344 347 348 323 304 338 321 297 306 165 210 228 200 224 325 340 203 234 256 285 12 332 304 304 296 298 293 282 287 292 290 306 28 41 37 33 23 11 3 3 0 359 359 352 349 350 347 348
256 233 70 2 354 15 36 235 235 246 194 76 67 81 67 80 86 60 5 338 335 348 8 34 3 351 31 359 341 8 356 354 349 345 30 19 23 68 35 6 329 332 333 307 302 343 318 284 299 283 248 281 311 31 348 332 311 267 278 326 7 334 310 302 280 274 285 283 289 295 289 301 55 40 26 27 12 3 2 358 355 353 352 351 348 346 345 344
262 213 60 354 348 352 260 248 39 39 93 79 70 75 54 54 83 76 47 351 359 32 11 16 22 19 11 351 12 10 337 337 9 13 45 32 23 57 37 6 330 325 325 305 321 2 350 302 296 306 306 307 345 52 23 340 353 351 333 339 352 337 322 306 286 288 346 290 289 292 286 295 53 36 25 21 2 3 360 349 350 349 346 344 342 342 342 340
262 138 40 353 352 312 273 76 53 354 71 77 71 72 43 344 56 58 61 11 347 16 175 16 21 29 25 358 346 355 347 353 18 17 51 52 34 33 19 352 329 315 316 326 4 10 352 292 285 293 293 299 356 77 74 65 64 46 4 3 354 334 326 313 298 310 317 293 289 285 280 286 63 38 32 17 351 347 338 338 344 342 337 333 332 335 336 335
44 92 39 2 358 301 284 99 106 45 69 95 103 61 25 24 65 77 47 29 354 326 101 82 19 14 40 11 327 345 3 0 21 32 58 83 68 45 3 342 336 330 326 337 0 4 321 269 292 296 289 295 99 105 99 101 106 296 326 13 9 353 344 309 287 298 295 283 286 278 272 274 105 87 349 345 338 336 334 339 340 335 331 328 325 328 329 331
74 91 51 14 4 299 279 86 120 106 96 120 110 83 55 45 45 45 41 28 14 1 45 66 41 5 29 2 326 358 3 355 51 55 37 51 79 63 9 358 356 4 19 8 351 345 322 309 325 317 307 319 49 107 96 152 283 314 339 22 41 33 349 298 278 283 271 277 308 291 272 294 11 340 336 336 335 336 336 337 335 329 328 325 322 323 324 327
121 112 84 33 26 25 2 8 94 121 123 120 99 85 105 86 41 352 31 36 18 0 21 61 23 342 8 352 293 46 21 7 29 46 35 34 80 83 23 15 19 30 38 11 337 311 299 307 317 315 315 323 322 317 324 322 313 314 327 26 51 30 356 323 299 285 274 313 339 307 285 314 332 334 335 332 330 333 334 331 327 325 326 323 320 320 319 321
205 108 110 61 38 48 76 17 19 118 126 119 96 68 62 102 119 260 1 43 35 18 30 49 4 293 359 359 40 72 30 7 355 9 35 15 30 53 28 31 41 34 27 351 337 307 282 292 300 307 300 303 310 307 310 316 310 302 315 6 46 15 352 342 310 289 304 327 314 300 316 324 325 327 327 324 327 332 330 326 325 324 324 322 319 316 314 315
269 92 61 113 76 70 85 54 27 87 111 75 87 66 55 100 131 151 53 38 41 20 45 57 35 16 25 10 354 11 356 355 85 59 36 343 338 17 37 89 49 14 317 329 353 336 286 295 349 346 292 288 296 295 298 306 299 298 320 356 20 5 357 350 316 309 324 319 295 313 325 319 316 320 319 322 331 332 326 324 323 319 317 317 316 313 313 315
335 102 31 327 10 73 81 50 35 71 74 58 89 74 73 97 104 89 65 110 85 3 352 79 53 43 41 7 338 347 346 350 129 96 22 344 335 339 41 119 66 14 343 10 24 13 289 290 57 352 290 288 289 286 292 299 292 299 342 3 358 8 25 3 320 320 324 309 302 316 318 311 309 314 319 329 332 325 322 319 313 310 310 313 314 313 314 318
77 107 62 336 24 67 66 16 35 85 73 64 84 61 61 86 90 76 29 314 133 21 2 47 56 39 40 13 358 11 356 348 40 44 43 24 329 316 326 118 95 47 27 35 46 27 295 292 56 318 290 291 291 288 288 279 280 296 357 34 6 358 348 321 309 318 323 314 310 314 311 305 304 311 322 328 320 316 314 308 304 306 310 314 315 311 312 315
118 115 106 104 87 68 51 347 23 101 79 46 70 66 51 75 90 103 32 2 38 28 7 35 53 30 45 24 20 40 7 332 299 299 329 334 315 315 355 354 41 26 18 36 28 348 321 353 32 312 289 296 300 289 268 275 287 293 315 70 13 341 328 320 312 320 328 320 314 312 307 301 303 319 321 314 308 308 305 303 304 307 311 314 313 307 306 308
63 66 110 119 94 27 359 54 327 106 80 43 60 86 86 89 97 111 79 32 28 25 10 13 10 297 182 37 25 26 355 317 294 296 304 302 306 340 1 350 346 334 352 30 353 325 332 324 318 299 296 306 323 353 310 305 298 278 130 57 352 351 340 322 310 315 327 322 314 310 305 303 311 319 317 309 307 307 305 306 306 307 311 312 308 304 302 300
92 64 11 103 96 23 337 92 23 70 72 36 45 68 65 100 120 126 96 85 57 43 23 343 330 294 184 47 15 354 329 313 304 312 310 282 271 307 344 3 13 342 339 354 285 321 14 317 314 322 302 303 317 323 317 310 296 178 128 59 349 0 340 324 310 310 317 316 308 303 302 304 307 310 311 309 308 306 306 307 307 308 311 308 303 301 298 296
Height
810 809 809 808 808 807 808 808 808 808 808 808 808 809 809 809 809 809 809 810 810 810 810 810 810 810 810 810 809 809 809 809 808 807 807 807 808 808 807 807 807 806 806 805 806 805 804 804 803 803 802 800 800 797 798 798 796 800 803 805 801 794 787 780 780 780 781 781 779 778 779 785 786 780 779 781 781 778 776 773 772 773 772 772 772 773 774 776
810 809 809 809 808 807 807 807 808 807 807 807 807 807 807 808 808 808 809 809 809 809 810 810 810 810 809 809 809 809 809 809 808 806 807 807 808 807 807 807 806 806 806 805 805 804 802 801 801 802 800 798 798 797 799 797 797 800 800 801 797 788 781 776 780 781 781 783 781 780 780 782 785 781 779 782 780 775 774 770 770 771 770 770 770 771 773 774
810 809 809 809 808 807 807 807 807 807 806 806 805 806 806 807 807 807 808 808 808 809 809 809 809 809 809 809 809 809 809 809 806 805 807 807 807 807 807 807 806 806 805 805 805 804 802 800 801 800 799 798 796 797 799 796 797 797 798 801 792 782 780 777 779 781 782 783 784 784 781 782 782 780 779 781 780 775 773 770 768 768 766 766 765 766 769 772
809 809 809 808 808 807 807 806 806 806 805 805 805 805 805 805 806 806 807 807 808 808 809 809 809 809 809 809 809 809 809 808 805 805 807 807 807 807 807 806 806 806 805 805 805 804 803 801 801 799 799 798 794 797 798 796 797 794 795 798 788 781 782 781 780 781 783 785 787 786 784 783 779 778 780 782 782 774 768 767 765 765 763 763 762 762 766 770
809 809 808 808 807 807 806 806 805 804 804 804 804 804 804 804 805 805 806 806 807 807 808 809 809 809 809 809 809 809 809 808 805 805 807 806 807 807 806 806 806 805 805 806 804 803 802 801 800 799 800 798 794 797 797 792 794 795 792 791 786 783 785 782 780 784 787 788 789 788 786 782 778 780 780 780 782 772 764 764 762 763 764 763 763 764 766 768
809 808 808 807 807 806 805 804 803 803 803 803 803 803 803 803 803 804 805 805 806 807 808 808 809 809 809 809 809 809 809 808 805 805 807 806 807 806 806 806 805 805 805 805 804 803 801 799 800 799 798 797 795 796 794 790 794 798 792 785 784 784 785 783 782 787 791 791 790 788 784 781 782 782 777 776 773 766 762 763 763 763 763 764 765 766 766 767
808 808 807 806 805 805 803 803 802 801 802 801 802 802 802 802 803 803 804 805 806 807 807 808 809 809 809 809 809 808 806 805 805 806 806 806 806 806 806 805 805 805 805 804 803 802 800 800 800 797 798 798 796 794 793 792 795 799 794 787 784 784 785 786 785 787 791 792 790 786 784 784 787 782 775 771 765 762 762 761 762 763 762 764 765 765 765 765
808 807 806 805 804 803 802 801 800 800 800 800 800 800 801 801 802 803 803 804 805 806 807 808 809 808 808 808 808 806 803 803 805 806 806 806 806 805 806 805 805 805 805 804 802 801 800 800 799 797 799 798 796 795 795 797 795 796 794 788 785 785 785 786 786 787 789 789 787 786 785 784 784 779 775 768 761 760 761 759 760 762 761 762 763 764 764 764
808 807 805 804 803 802 801 800 799 798 798 799 799 799 800 800 801 802 803 803 804 806 807 808 808 808 808 808 806 804 802 804 805 805 806 806 806 805 805 805 805 804 804 804 802 802 801 799 798 799 800 797 796 797 797 801 797 792 792 789 787 787 785 785 784 786 787 785 786 786 783 780 778 779 775 763 758 758 757 759 759 760 761 760 762 762 762 763
807 806 805 804 802 801 800 799 798 797 797 797 798 799 799 800 800 801 802 803 804 805 806 807 807 807 808 807 805 804 803 804 805 805 806 806 805 805 805 805 805 804 803 803 803 802 800 800 799 799 801 798 797 798 798 801 797 792 793 792 791 789 785 784 783 783 784 784 786 785 781 777 776 782 775 756 754 758 757 759 759 760 761 760 761 761 761 762
806 805 804 803 802 801 799 798 797 797 797 797 797 798 799 799 800 801 802 803 804 805 806 806 807 807 808 806 804 803 803 805 805 806 806 805 805 805 805 805 805 804 803 802 802 802 801 801 800 801 802 800 798 798 797 798 797 795 796 794 790 787 782 780 780 781 785 785 784 784 782 775 776 781 771 754 753 757 758 759 759 759 759 759 760 760 761 761
805 804 804 803 801 800 799 798 798 798 797 797 797 798 799 799 800 801 802 803 804 804 805 806 807 807 807 806 803 802 804 805 805 806 806 805 805 805 805 804 804 804 803 802 801 802 803 802 802 802 801 801 800 798 797 798 797 796 797 796 790 784 779 775 776 783 787 786 783 786 780 765 768 771 758 751 753 755 759 760 759 759 758 759 760 760 761 762
804 804 803 802 801 800 799 799 799 798 798 798 798 798 799 799 800 801 802 803 804 804 805 806 807 808 808 804 802 804 805 805 805 806 806 805 805 804 804 804 804 804 804 803 802 802 804 803 803 802 800 802 801 800 800 798 798 797 794 794 791 783 778 774 778 785 787 785 784 789 779 755 754 758 749 751 755 757 761 760 759 760 760 761 761 762 762 763
804 803 803 802 801 800 800 800 799 799 798 798 799 799 800 800 801 802 803 803 804 805 805 806 807 808 807 804 803 804 804 805 806 806 806 806 805 804 804 804 803 804 803 803 803 803 804 804 803 802 802 803 801 801 801 797 795 796 793 791 793 788 778 776 780 783 784 785 784 789 784 760 748 748 749 754 757 760 763 761 761 761 763 765 765 767 768 769
804 803 803 802 801 801 801 801 800 799 799 799 800 800 801 801 802 803 803 804 805 805 806 807 807 807 806 803 803 805 805 805 806 806 806 805 805 803 803 803 803 803 803 803 803 803 804 803 803 802 801 802 803 804 800 794 789 791 794 788 784 784 776 774 780 780 781 783 785 788 782 762 748 748 754 758 758 761 762 761 764 767 771 774 774 777 777 778
804 803 803 802 802 802 802 801 800 800 800 800 801 801 801 802 803 803 804 805 806 806 807 807 807 808 805 802 804 804 805 805 805 805 805 804 805 803 803 803 803 802 802 803 803 803 803 802 803 803 803 802 802 801 799 794 785 786 794 788 780 780 775 773 781 782 780 782 784 785 780 764 752 752 755 756 757 759 763 767 772 776 780 783 784 786 785 785
803 803 802 802 802 802 802 801 801 801 801 801 802 802 803 803 804 805 805 806 806 807 807 807 807 807 805 803 804 803 803 804 805 805 805 804 804 803 803 802 801 802 802 802 802 802 802 802 803 803 801 800 797 798 801 794 783 782 788 785 778 777 776 775 780 782 782 783 783 782 781 769 756 754 755 756 759 764 771 777 781 784 788 790 791 791 791 790
802 802 802 802 802 802 802 802 802 802 802 803 803 803 804 804 805 805 806 807 807 808 808 807 807 808 806 803 803 803 803 805 805 805 805 804 804 804 803 801 801 801 800 801 801 800 801 800 801 801 798 797 796 799 802 792 783 787 788 786 781 777 778 774 773 778 782 783 783 781 779 768 757 756 759 764 769 773 780 786 788 790 794 795 795 795 795 794
802 802 803 802 802 803 803 803 803 803 804 804 804 805 805 806 806 806 807 807 807 807 808 807 806 806 806 803 803 804 804 805 805 805 805 804 804 803 802 802 800 800 800 800 798 798 800 799 801 802 797 792 791 793 794 787 786 791 791 792 792 785 780 771 768 777 782 783 782 778 774 766 759 759 766 774 778 782 787 791 794 797 798 798 798 798 798 798
802 803 803 802 803 804 804 804 804 804 805 805 805 805 805 804 805 805 806 807 806 807 807 806 804 804 804 803 804 805 804 804 804 804 805 804 803 802 801 800 799 799 800 799 798 799 802 803 801 798 791 785 784 786 787 786 788 792 793 793 792 787 780 769 769 780 785 785 779 771 769 767 762 763 773 781 783 789 795 797 800 801 801 801 801 802 801 801
802 803 803 803 803 804 804 805 805 805 805 805 805 804 803 802 803 804 804 805 807 808 808 807 806 805 805 806 806 806 805 803 802 803 804 803 802 801 799 798 799 798 798 798 800 802 806 806 796 789 787 786 788 789 790 791 792 794 796 793 788 784 776 766 773 784 786 787 778 768 769 767 762 767 779 786 789 798 802 803 806 805 804 805 805 805 804 804
802 802 802 803 803 804 804 805 805 805 806 805 805 804 802 802 803 804 803 804 807 809 808 807 807 806 806 808 807 808 806 802 801 802 804 803 801 800 798 798 798 796 796 800 801 802 803 799 791 789 790 792 794 795 796 796 796 795 792 791 786 779 772 768 779 787 785 787 778 768 772 767 762 774 786 791 796 804 807 808 809 808 808 808 807 808 807 806
801 802 802 803 803 803 804 805 805 806 806 805 805 803 803 804 803 804 804 803 806 809 808 807 807 805 806 807 808 808 805 802 801 802 805 803 800 801 801 798 797 795 797 798 799 800 795 790 793 795 795 796 795 796 798 797 795 792 788 787 782 776 777 778 780 782 781 782 776 774 777 767 766 782 792 796 800 804 807 809 810 810 810 810 810 810 810 808
801 801 802 802 802 803 804 805 806 805 805 805 804 804 803 804 804 804 804 803 806 808 808 809 808 806 807 808 809 807 804 803 803 803 806 804 801 803 802 801 800 799 798 796 798 799 791 791 799 800 799 799 796 796 797 796 789 783 782 784 782 780 784 783 779 778 775 772 775 781 775 759 763 780 789 795 800 802 806 807 808 809 810 811 811 811 811 810
800 800 801 802 802 803 805 805 805 805 805 804 804 804 804 804 804 804 804 805 807 807 808 810 808 808 809 808 808 806 804 804 805 806 807 806 804 804 803 803 803 799 798 799 802 798 792 798 803 800 799 799 799 796 793 795 790 780 781 786 787 787 789 787 783 783 776 768 775 783 775 760 759 772 782 790 796 800 806 807 807 808 809 811 812 812 813 812
799 799 800 801 802 803 805 805 804 804 804 803 804 804 804 804 804 804 805 804 805 808 809 808 807 808 809 807 806 805 804 805 807 808 808 808 807 807 804 803 803 801 801 804 802 796 795 802 805 801 800 800 799 794 792 797 793 784 790 796 794 793 793 790 787 788 782 771 771 777 779 770 758 762 776 786 793 799 802 804 807 809 811 813 814 814 815 815
798 798 799 801 802 803 804 803 803 804 803 803 803 804 804 805 804 805 806 804 806 810 808 806 807 809 808 807 805 804 804 805 808 808 809 809 807 808 806 801 802 802 805 806 799 794 798 802 803 802 800 797 793 791 794 799 795 790 800 804 798 795 794 792 790 790 782 773 768 764 773 775 759 760 775 780 788 797 800 804 809 812 814 815 817 817 818 818
798 798 799 800 801 803 803 804 803 803 803 802 803 804 804 805 805 805 806 810 812 810 808 807 808 809 807 806 805 804 805 805 805 807 809 809 808 808 806 802 803 802 805 807 799 795 799 801 801 802 800 795 792 796 800 801 797 797 806 806 799 798 796 792 792 788 780 780 775 759 766 776 760 759 774 775 785 799 804 809 813 815 817 817 819 819 819 820
797 798 799 800 802 803 804 804 804 803 803 803 803 804 804 804 805 803 805 813 814 808 808 808 807 809 806 805 805 805 806 805 805 808 808 808 808 808 807 805 806 804 804 807 801 795 800 805 805 804 802 798 798 804 807 806 801 803 809 804 798 797 795 793 791 785 783 786 779 758 759 770 757 756 771 776 792 811 811 812 816 817 819 819 820 821 821 821
797 798 799 801 803 804 805 805 804 803 804 804 804 804 805 804 805 805 809 815 814 809 809 807 808 812 807 804 805 804 806 807 807 807 805 807 808 807 809 810 810 807 805 807 804 797 803 811 810 808 808 804 805 809 813 812 807 807 807 796 790 785 783 788 786 785 789 782 772 760 758 768 763 764 783 795 809 822 818 815 819 820 821 822 823 824 824 823
798 799 800 802 804 805 805 804 803 804 804 804 804 804 805 805 803 806 814 816 813 810 809 810 813 813 812 811 809 806 808 809 809 808 805 805 807 806 806 807 808 804 798 800 800 795 801 808 808 811 814 811 809 808 813 816 812 809 801 791 789 779 773 781 779 785 789 773 766 767 767 771 766 769 796 814 818 822 821 821 823 824 825 825 826 826 826 825
799 800 802 803 804 804 804 804 804 804 804 804 804 804 805 806 805 808 814 814 815 814 813 817 817 814 817 817 813 813 814 812 809 812 811 807 808 812 812 812 813 805 795 794 793 789 795 806 809 814 816 815 809 801 804 810 806 802 795 791 794 787 782 786 780 780 778 765 763 768 771 773 768 779 805 815 818 821 822 824 825 826 828 826 828 829 828 828
802 802 803 804 804 804 804 804 804 804 804 805 804 803 805 807 810 818 816 811 817 820 819 821 818 816 818 814 813 817 818 816 811 811 814 809 808 815 818 817 818 814 805 800 796 794 798 806 810 809 812 816 811 800 800 803 797 795 796 796 799 800 803 802 788 780 775 766 760 762 775 774 767 791 814 814 819 825 823 825 826 828 829 829 830 831 831 831
803 803 804 804 804 805 805 804 805 804 804 805 804 804 807 809 816 826 821 812 817 820 820 822 819 817 817 814 818 821 816 816 813 810 809 804 806 814 818 820 821 819 813 803 802 806 803 802 806 806 809 814 811 805 808 807 799 797 799 799 800 801 807 806 795 788 786 778 767 767 776 766 763 794 817 817 822 825 825 828 828 830 832 832 833 833 833 833
804 804 805 805 805 805 805 805 805 804 804 804 803 804 809 813 816 820 820 818 820 819 819 823 821 814 812 815 821 823 820 817 813 811 810 808 814 820 823 827 826 823 819 810 807 810 802 799 809 815 814 814 810 810 814 809 800 800 799 798 801 800 802 804 798 793 792 788 783 777 769 769 788 810 815 817 821 823 827 830 829 833 835 835 836 835 834 834
805 805 805 806 806 806 806 805 805 805 805 804 804 806 813 820 820 819 824 826 825 824 820 819 818 812 808 811 815 819 825 822 813 812 814 817 823 827 827 832 832 828 827 823 816 813 809 803 807 815 815 812 811 812 813 810 804 802 799 799 801 801 803 808 802 793 792 795 789 772 763 774 797 811 814 816 819 822 829 831 833 835 836 836 837 836 835 834
806 806 807 807 807 806 806 806 805 805 804 802 807 814 819 826 828 826 830 831 830 831 822 815 819 819 814 813 813 817 822 820 815 811 812 817 826 833 833 832 834 831 832 833 823 818 820 811 802 808 809 809 817 818 813 814 812 806 804 803 803 803 803 806 807 802 801 803 788 771 770 772 772 791 814 820 821 828 832 834 837 836 836 838 836 835 835 834
807 806 807 808 808 807 806 806 806 805 803 804 814 823 823 827 833 834 836 836 833 831 822 817 823 824 820 818 817 822 823 819 815 812 812 818 827 838 839 834 835 832 832 837 828 819 822 815 804 806 807 808 817 818 810 812 816 812 810 808 807 813 811 805 809 813 814 811 795 780 778 774 774 796 819 825 829 835 836 837 839 837 837 838 835 834 833 832
807 806 807 809 808 807 806 807 806 803 803 807 815 822 826 830 837 841 842 841 836 830 824 824 827 824 824 825 824 826 826 824 821 816 817 822 829 841 844 839 839 835 832 835 830 822 822 817 809 806 806 805 806 806 803 806 813 814 811 807 807 816 816 811 813 817 819 815 803 794 785 781 800 822 828 832 838 837 837 838 838 838 838 837 835 833 831 830
806 805 808 810 808 807 807 806 805 804 808 813 817 823 830 834 839 844 846 843 838 833 828 828 829 827 827 830 829 829 828 827 825 820 821 827 833 842 847 846 844 841 836 833 831 827 822 818 813 804 801 801 800 803 807 808 809 809 809 810 815 819 817 816 813 809 816 815 807 810 800 790 814 834 831 836 840 838 840 840 839 839 838 836 835 833 831 830
806 806 809 810 808 809 807 806 810 811 813 818 822 828 835 836 838 843 846 845 841 838 836 833 831 831 831 830 830 832 830 826 825 823 825 830 834 840 847 850 849 846 840 832 831 833 829 825 821 812 806 801 801 808 814 812 810 811 813 816 823 826 825 828 821 808 815 819 813 822 814 803 824 839 835 839 842 840 842 839 838 839 836 835 835 833 833 831
805 808 811 810 809 809 807 811 818 816 815 824 830 835 839 839 839 841 843 844 842 838 838 837 835 835 835 834 833 833 832 828 826 827 829 835 841 844 849 851 850 847 843 836 834 839 840 835 829 821 810 802 805 814 815 815 815 816 819 822 827 830 830 838 837 823 825 826 821 825 818 816 836 843 836 839 837 835 836 833 833 834 833 834 834 833 834 832
806 809 812 811 810 809 809 814 820 819 824 835 839 840 842 839 838 840 841 842 840 838 836 837 840 839 839 840 837 834 835 833 831 831 833 838 846 851 853 852 849 844 843 841 838 840 840 833 827 821 807 798 807 817 817 819 820 816 818 825 834 838 840 845 844 839 843 836 827 828 819 819 839 841 832 834 831 829 830 830 832 834 833 834 834 834 834 832
809 810 811 811 810 809 810 814 818 822 831 836 837 840 843 842 842 842 842 842 842 840 837 839 843 841 841 843 841 837 838 837 834 836 837 838 847 854 853 851 849 846 847 849 847 846 840 828 826 827 818 809 811 815 816 820 819 816 820 831 841 847 852 852 846 845 847 836 833 839 828 819 831 835 830 830 828 828 830 831 834 835 834 834 834 834 834 833
810 812 812 812 811 810 814 818 817 822 829 831 834 839 840 843 849 848 845 847 847 843 840 842 845 844 842 843 841 840 841 839 838 840 841 841 847 853 853 852 851 850 853 857 854 852 845 835 832 835 834 830 826 824 824 823 822 821 825 837 850 855 858 857 851 850 849 844 846 848 838 831 833 833 831 830 828 830 833 834 835 835 835 835 834 835 835 833
808 811 813 813 813 814 820 824 819 820 827 828 833 838 837 840 849 850 848 847 848 846 843 843 846 845 842 840 840 840 840 841 842 844 847 848 848 851 854 853 854 854 857 859 856 853 848 839 836 838 839 838 835 832 828 827 831 830 830 843 855 858 860 861 859 856 856 860 858 847 844 849 845 838 836 833 831 834 837 836 836 836 836 835 834 834 833 831
808 813 817 816 816 817 820 824 823 823 827 828 832 840 840 839 843 845 846 847 847 848 846 845 846 845 844 845 843 841 841 842 845 850 856 856 851 852 854 854 855 856 857 857 855 854 849 842 844 849 847 842 839 836 832 831 835 835 837 848 855 857 861 866 866 863 864 871 865 850 851 858 850 842 840 836 835 839 838 837 838 837 836 834 833 831 829 828
812 818 823 822 821 822 823 827 828 828 829 830 835 841 840 840 843 845 846 846 847 847 844 845 849 849 850 850 846 844 844 842 845 855 860 859 857 854 852 854 856 854 855 855 855 858 854 846 852 860 855 847 842 837 833 834 835 836 843 852 854 858 865 869 870 866 866 873 871 860 858 859 851 844 842 840 841 841 840 840 839 837 834 832 830 828 827 826
817 819 826 826 827 830 833 834 832 830 832 832 836 842 841 841 847 851 850 847 845 846 845 845 852 853 852 851 847 849 851 846 849 859 863 864 865 860 854 855 855 853 854 856 857 862 857 849 855 863 857 847 840 834 834 839 838 837 847 856 858 859 863 867 869 865 864 869 868 862 861 858 849 842 841 843 844 842 841 841 838 835 833 831 830 828 826 826
814 816 822 825 829 835 837 836 831 828 832 832 836 845 846 844 848 853 855 853 848 848 849 850 854 856 855 854 852 854 859 857 857 860 862 864 864 860 858 857 856 856 857 858 861 862 858 853 856 862 856 844 836 836 838 840 837 837 847 857 861 862 863 864 866 865 867 870 867 864 864 855 844 840 841 843 843 842 842 839 836 834 832 831 830 828 826 825
813 815 817 819 830 838 836 834 831 827 830 835 839 846 848 847 850 853 857 860 857 856 857 856 857 857 855 855 857 859 863 864 862 861 861 863 862 861 862 861 861 861 860 863 867 864 862 859 855 858 857 843 835 839 840 836 838 847 858 863 864 867 868 868 867 866 869 873 871 867 863 852 843 842 843 842 843 843 841 837 834 833 832 831 829 827 825 824
815 817 816 815 828 840 837 832 830 829 836 846 848 850 850 850 853 853 854 860 861 861 862 862 860 855 851 855 862 865 867 866 866 865 864 864 863 863 864 864 864 865 863 867 870 868 871 868 856 856 858 846 835 838 840 838 841 853 865 868 867 871 872 870 867 866 867 872 872 866 859 851 846 845 845 844 843 843 840 836 834 832 831 829 826 824 823 820